User: anonymous   Login
Location: Unspecified
(0.0000°N, 0.0000°E)
Time: 21:38:19
(UTC+00:00)
Language:

AGILE - Orbit

View from above orbital plane
View from above orbital plane
View from above satellite
View from above satellite

Ground track
Ground track

The orbit data is extracted from the following two-line orbital elements,

1 31135U 07013A   16119.75145546  .00004062  00000-0  10499-3 0  9997
2 31135   2.4675  91.9593 0013106  35.9850 324.1085 15.27919607500179
Epoch (UTC): 28 April 2016 18:02:05
Eccentricity: 0.0013106
inclination: 2.4675°
perigee height: 473 km
apogee height: 491 km
right ascension of ascending node: 91.9593°
argument of perigee: 35.9850°
revolutions per day: 15.27919607
mean anomaly at epoch: 324.1085°
orbit number at epoch: 50017

The dashed part of the orbit path shows where the satellite is in the earth's shadow,  

DLR